STARLINK-30055 (55699 NORAD) Tracking and Keplerian Element Data

This shows tracking and keplerian element data for the satellite.

Feedback or suggestion? Click here.




ElementValue
Catalog55699
NameSTARLINK-30055
Epoch Orbit130
Epoch Day62.91667824
Epoch Year2023
RAAN259.6233
Inclination43.0101
Eccentricity0.0001578
Argument of Perigee280.7614
Mean Anonmoly176.2495
Mean Motion15.64818875
Decay Rate-0.00792083
L11 55699U 23026E 23062.91667824 -.00792083 00000+0 -86930-2 0 9991
L22 55699 43.0101 259.6233 0001578 280.7614 176.2495 15.64818875 1305



Live tracking and technical data element details for STARLINK-30055 (NORAD 55699). STARLINK-30055 can be tracked NOW for your location showing map with azimuth and elevation plus other details from your city location.







IsCatalogInMostPopularTable: catalog: 55699, numindb: 1
Update: records affected: 1



GetName: 55699 STARLINK-30055

Hit Count: updated at: Mon, 20 Mar 2023 13:26:34 GMT